TimeCST,TemperatureF,Dew PointF,Humidity,Sea Level PressureIn,VisibilityMPH,Wind Direction,Wind SpeedMPH,Gust SpeedMPH,PrecipitationIn,Events,Conditions,WindDirDegrees,DateUTC
12:15 AM,2.1,-3.8,76,30.07,7.0,NE,3.5,-,N/A,,Clear,40,2013-03-04 06:15:00
12:55 AM,3.2,-3.5,74,30.08,10.0,Calm,Calm,-,N/A,,Clear,0,2013-03-04 06:55:00
1:15 AM,2.1,-3.8,76,30.08,10.0,Calm,Calm,-,N/A,,Clear,0,2013-03-04 07:15:00
1:35 AM,1.9,-3.3,79,30.09,7.0,Calm,Calm,-,N/A,,Clear,0,2013-03-04 07:35:00
1:55 AM,3.9,-2.7,74,30.09,10.0,Calm,Calm,-,N/A,,Clear,0,2013-03-04 07:55:00
2:15 AM,2.1,-3.5,77,30.09,10.0,Calm,Calm,-,N/A,,Clear,0,2013-03-04 08:15:00
2:35 AM,1.6,-3.8,78,30.10,10.0,Calm,Calm,-,N/A,,Clear,0,2013-03-04 08:35:00
2:55 AM,1.0,-4.2,79,30.10,10.0,NE,5.8,-,N/A,,Clear,40,2013-03-04 08:55:00
3:15 AM,2.8,-2.9,77,30.10,10.0,NE,4.6,-,N/A,,Clear,50,2013-03-04 09:15:00
3:35 AM,2.5,-2.9,78,30.10,10.0,Calm,Calm,-,N/A,,Clear,0,2013-03-04 09:35:00
3:55 AM,2.7,-2.7,78,30.10,10.0,NNE,3.5,-,N/A,,Clear,20,2013-03-04 09:55:00
4:15 AM,5.5,-1.3,73,30.10,10.0,NNE,3.5,-,N/A,,Clear,30,2013-03-04 10:15:00
4:35 AM,5.4,-0.8,76,30.10,10.0,NE,4.6,-,N/A,,Clear,40,2013-03-04 10:35:00
4:55 AM,6.3,-0.6,73,30.10,10.0,Calm,Calm,-,N/A,,Clear,0,2013-03-04 10:55:00
5:15 AM,7.2,0.3,74,30.10,10.0,ENE,3.5,-,N/A,,Clear,60,2013-03-04 11:15:00
5:35 AM,7.7,1.0,74,30.10,10.0,ENE,4.6,-,N/A,,Clear,70,2013-03-04 11:35:00
5:55 AM,8.2,2.3,77,30.10,10.0,ENE,3.5,-,N/A,,Clear,70,2013-03-04 11:55:00
6:15 AM,8.6,3.9,81,30.10,10.0,East,4.6,-,N/A,,Clear,80,2013-03-04 12:15:00
6:35 AM,8.6,4.5,83,30.10,10.0,East,5.8,-,N/A,,Clear,80,2013-03-04 12:35:00
6:55 AM,9.1,5.0,83,30.10,10.0,ENE,8.1,-,N/A,,Clear,70,2013-03-04 12:55:00
7:15 AM,9.5,5.7,85,30.10,10.0,East,8.1,-,N/A,,Clear,80,2013-03-04 13:15:00
7:35 AM,10.2,6.1,83,30.10,10.0,East,6.9,-,N/A,,Clear,80,2013-03-04 13:35:00
7:55 AM,10.9,6.8,83,30.11,10.0,East,5.8,-,N/A,,Clear,80,2013-03-04 13:55:00
8:15 AM,12.0,7.3,81,30.11,10.0,East,5.8,-,N/A,,Clear,80,2013-03-04 14:15:00
8:35 AM,13.1,7.9,80,30.11,10.0,East,9.2,-,N/A,,Clear,90,2013-03-04 14:35:00
8:55 AM,14.5,8.6,77,30.10,10.0,East,9.2,-,N/A,,Scattered Clouds,80,2013-03-04 14:55:00
9:15 AM,15.6,8.8,74,30.10,10.0,East,5.8,-,N/A,,Clear,100,2013-03-04 15:15:00
9:35 AM,17.2,9.1,71,30.10,10.0,East,9.2,-,N/A,,Clear,100,2013-03-04 15:35:00
9:55 AM,18.3,9.5,68,30.10,10.0,East,10.4,-,N/A,,Clear,90,2013-03-04 15:55:00
10:15 AM,19.2,9.5,66,30.10,10.0,East,9.2,-,N/A,,Clear,100,2013-03-04 16:15:00
10:35 AM,20.5,10.0,64,30.10,10.0,East,11.5,-,N/A,,Clear,100,2013-03-04 16:35:00
10:55 AM,21.2,10.9,65,30.09,10.0,East,10.4,-,N/A,,Scattered Clouds,100,2013-03-04 16:55:00
11:15 AM,21.9,11.5,64,30.09,10.0,East,10.4,-,N/A,,Scattered Clouds,90,2013-03-04 17:15:00
11:35 AM,22.6,12.2,64,30.09,10.0,East,10.4,-,N/A,,Mostly Cloudy,100,2013-03-04 17:35:00
11:55 AM,23.4,12.6,63,30.09,10.0,East,11.5,-,N/A,,Scattered Clouds,100,2013-03-04 17:55:00
12:15 PM,24.1,12.6,62,30.08,10.0,East,9.2,-,N/A,,Scattered Clouds,90,2013-03-04 18:15:00
12:55 PM,25.2,12.7,59,30.06,10.0,East,10.4,-,N/A,,Scattered Clouds,80,2013-03-04 18:55:00
1:15 PM,25.5,11.8,56,30.06,10.0,East,13.8,-,N/A,,Mostly Cloudy,100,2013-03-04 19:15:00
1:35 PM,25.5,10.8,54,30.05,10.0,East,15.0,-,N/A,,Scattered Clouds,90,2013-03-04 19:35:00
1:55 PM,25.7,11.7,55,30.05,10.0,ESE,11.5,-,N/A,,Mostly Cloudy,110,2013-03-04 19:55:00
2:15 PM,25.7,12.0,56,30.05,10.0,East,9.2,-,N/A,,Overcast,90,2013-03-04 20:15:00
2:35 PM,25.7,12.2,57,30.05,10.0,East,12.7,-,N/A,,Overcast,90,2013-03-04 20:35:00
2:55 PM,25.7,12.0,56,30.04,10.0,East,10.4,-,N/A,,Overcast,90,2013-03-04 20:55:00
3:35 PM,26.1,12.0,55,30.04,10.0,East,12.7,-,N/A,,Overcast,100,2013-03-04 21:35:00
3:55 PM,26.1,11.5,54,30.04,10.0,East,11.5,-,N/A,,Overcast,90,2013-03-04 21:55:00
4:15 PM,25.3,11.1,55,30.04,10.0,East,12.7,-,N/A,,Overcast,100,2013-03-04 22:15:00
4:35 PM,24.8,10.8,55,30.04,10.0,East,11.5,-,N/A,,Overcast,90,2013-03-04 22:35:00
4:55 PM,24.8,9.1,51,30.05,10.0,East,11.5,-,N/A,,Overcast,100,2013-03-04 22:55:00
5:15 PM,24.4,10.8,56,30.05,10.0,East,10.4,-,N/A,,Overcast,100,2013-03-04 23:15:00
5:35 PM,23.9,10.0,56,30.05,10.0,East,8.1,-,N/A,,Overcast,90,2013-03-04 23:35:00
5:55 PM,23.9,8.8,53,30.05,10.0,East,10.4,-,N/A,,Overcast,90,2013-03-04 23:55:00
6:15 PM,23.5,9.9,56,30.05,10.0,East,11.5,-,N/A,,Overcast,90,2013-03-05 00:15:00
6:35 PM,23.5,11.3,60,30.05,10.0,East,10.4,-,N/A,,Overcast,90,2013-03-05 00:35:00
7:15 PM,23.0,12.7,65,30.07,10.0,East,6.9,-,N/A,,Overcast,80,2013-03-05 01:15:00
7:35 PM,23.0,13.1,66,30.07,10.0,East,9.2,-,N/A,,Overcast,80,2013-03-05 01:35:00
7:55 PM,23.0,14.5,70,30.06,10.0,East,9.2,-,N/A,,Overcast,80,2013-03-05 01:55:00
8:35 PM,23.0,15.1,72,30.06,10.0,East,10.4,-,N/A,,Overcast,80,2013-03-05 02:35:00
8:55 PM,23.0,15.3,72,30.06,10.0,East,9.2,-,N/A,,Overcast,80,2013-03-05 02:55:00
9:15 PM,23.0,15.3,72,30.06,10.0,East,12.7,17.3,N/A,,Overcast,90,2013-03-05 03:15:00
9:35 PM,23.0,15.3,72,30.06,10.0,East,11.5,16.1,N/A,,Overcast,90,2013-03-05 03:35:00
9:55 PM,23.0,14.5,70,30.06,10.0,East,11.5,19.6,N/A,,Overcast,90,2013-03-05 03:55:00
10:15 PM,23.0,13.5,67,30.07,10.0,East,11.5,-,N/A,,Overcast,90,2013-03-05 04:15:00
10:55 PM,22.5,13.1,67,30.08,10.0,East,10.4,-,N/A,,Overcast,100,2013-03-05 04:55:00
11:15 PM,22.5,13.6,69,30.07,10.0,East,10.4,-,N/A,,Overcast,90,2013-03-05 05:15:00
11:35 PM,22.6,14.0,69,30.07,10.0,East,10.4,-,N/A,,Overcast,100,2013-03-05 05:35:00
11:55 PM,22.8,14.2,69,30.07,10.0,East,9.2,-,N/A,,Overcast,90,2013-03-05 05:55:00